Tracking 29892 objects as of 21-Nov-2024
HD Live streaming from Space Station
objects crossing your sky now

ARIANE 5 R/B

Track ARIANE 5 R/B now!


NORAD ID: 33276
Int'l Code: 2008-038C
Perigee: 299.5 km
Apogee: 32,437.2 km
Inclination: 2.4 °
Period: 568.8 minutes
Semi major axis: 22739 km
RCS: 23.7749 m2 (large)
Launch date: August 14, 2008
Source: France (FR)
Launch site: FRENCH GUIANA (FRGUI)

Note: This is a ROCKET BODY
Your satellite tracking list
Your tracking list is empty




NASA's NSSDC Master Catalog

Two Line Element Set (TLE):
1 33276U 08038C   24325.56257383  .00001328  00000-0  82208-3 0  9992
2 33276   2.4336  14.1657 7066538 344.0349   2.0677  2.53183383142079
Source of the keplerian elements: AFSPC